Showing default

COSMOS 2452, 35499

Orbit data source: Space-Track

COSMOS 2452, 35499 is a payload satellite owned by KVR (CIS) in LEO that was launched on Mon, 06 Jul 2009 UTC via an ROKOT launch vehicle from the Plesetsk Missile And Space Complex (PKMTR). Payloads include a variety of satellites, spacecraft, and rockets equipped with specific instruments for various scientific and technological missions. These include communications satellites like Starlink; space stations such as the ISS; scientific satellites like the Hubble; Earth observation satellites from companies like Planet Labs, Umbra, and HawkEye 360; GPS; miniature CubeSats for education and research; and military/defense satellites.

Loading next visibility...
COSMOS 2452 details
Identifier
35499, 2009-036B
Orbit
LEO
Last TLE update9 hours ago
Origin
Flag of CISKVR (CIS)
ManufacturerResehetnev ISS
MissionNon-operational Defense Communications
Bus & MotorSTRELA-3M, Unknown motor
Mass280 kg wet, 280 kg dry
Launch date (UTC)
2009-07-06 (15 years ago)
Launch vehicle
ROKOT
Launch site
Plesetsk Missile And Space Complex (PKMTR)
Object type
Payload
Rocket body
Debris
Shape & HBRCyl + 1 Ant, 7 m
Radar Cross Section1.583 m², Large (>1 m²)

Expand to show TLE details & history

TLE from 9 hours ago
0 COSMOS 2452
1 35499U 09036B   24361.51497942  .00000027  00000-0  12328-3 0  9993
2 35499  82.4903  54.4477 0015627 228.3788 131.5954 12.42984954701978
Epoch: 2024-12-26T12:21Z
Definitive object data (Epoch: 2024-12-26T12:21:34.221Z)
Latitude-0.00002°
Longitude133.56184°
Altitude1,504.853 km
Speed7.108 km/s
True Right ascension03h 37m 47s
True Declination0° 00' 00"
Sunlit
Object was in full shadow at TLE epoch
Visualization TLE readout
Latitude-9.57312°
Longitude-45.39731°
Altitude1,488.732 km
Speed7.123 km/s
Apparent Right ascension13h 14m 53s
Apparent Declination-34° 38' 31"
Sunlit
Object is in daylight
Visualization observer readout
Local Sidereal Time20:29:11
Azimuth251.046° W
Elevation-34.455°
Doppler factor1
Orbital elements
Apogee altitude1,503.624 km
Perigee altitude1,479.029 km
Semi-major axis7,869.463 km
Eccentricity0.0015627
Inclination82.4903°
RAAN54.4477°
Arg. of periapsis228.3788°
True anomaly131.72915°
Mean anomaly131.5954°
Eccentric anomaly131.66229°
Mean motion3.10903 °/min
BSTAR0.00012328
Orbital period115.79 mins
Loading maneuver chart data...
Loading historical data...
Loading historical data...
Loading historical data...
Loading historical data...
Loading historical data...
Loading historical data...
Loading historical data...
Other satellites on launch #36 in the year 2009 (2009-07-06 UTC)

COSMOS 2452 Visibility forecast

Observer location: undefined°, undefined

Span
Click to sort rows by Start time (UTC) header in descending order
Start Az.
Max El. time (UTC)
Max El. Az.
Max El.
End time (UTC)
End Az.
16 mins2024-12-27 03:53:15.111Z165.795° S2024-12-27 04:01:15.111Z101.489° ESE39.893°2024-12-27 04:09:15.111Z17.26° NNE
13 mins2024-12-27 05:53:15.111Z239.494° WSW2024-12-27 05:59:15.111Z294.4° NW27.241°2024-12-27 06:06:15.111Z349.162° N
12 mins2024-12-27 14:06:15.111Z19.724° NNE2024-12-27 14:12:15.111Z70.842° E24.33°2024-12-27 14:18:15.111Z118.973° SE
15 mins2024-12-27 16:02:15.111Z344.655° N2024-12-27 16:09:15.111Z273.677° WNW42.218°2024-12-27 16:17:15.111Z189.69° SSW
|